Year,Month,Day,Hour,Minute,Value (Times are PST for temperature in C)
2005,04,20,00,01,10.10
2005,04,20,00,02,10.00
2005,04,20,00,03,10.00
2005,04,20,00,04,10.10
2005,04,20,00,05,10.10
2005,04,20,00,06,10.10
2005,04,20,00,07,10.10
2005,04,20,00,08,10.10
2005,04,20,00,09,10.00
2005,04,20,00,10,9.90
2005,04,20,00,11,9.90
2005,04,20,00,12,9.80
2005,04,20,00,13,9.70
2005,04,20,00,14,9.60
2005,04,20,00,15,9.50
2005,04,20,00,16,9.40
2005,04,20,00,17,9.50
2005,04,20,00,18,9.60
2005,04,20,00,19,9.70
2005,04,20,00,20,9.70
2005,04,20,00,21,9.70
2005,04,20,00,22,9.70
2005,04,20,00,23,9.70
2005,04,20,00,24,9.60
2005,04,20,00,25,9.50
2005,04,20,00,26,9.50
2005,04,20,00,27,9.50
2005,04,20,00,28,9.40
2005,04,20,00,29,9.40
2005,04,20,00,30,9.40
2005,04,20,00,31,9.30
2005,04,20,00,32,9.30
2005,04,20,00,33,9.30
2005,04,20,00,34,9.40
2005,04,20,00,35,9.40
2005,04,20,00,36,9.40
2005,04,20,00,37,9.50
2005,04,20,00,38,9.50
2005,04,20,00,39,9.50
2005,04,20,00,40,9.60
2005,04,20,00,41,9.60
2005,04,20,00,42,9.60
2005,04,20,00,43,9.60
2005,04,20,00,44,9.60
2005,04,20,00,45,9.60
2005,04,20,00,46,9.60
2005,04,20,00,47,9.60
2005,04,20,00,48,9.60
2005,04,20,00,49,9.60
2005,04,20,00,50,9.60
2005,04,20,00,51,9.60
2005,04,20,00,52,9.60
2005,04,20,00,53,9.60
2005,04,20,00,54,9.60
2005,04,20,00,55,9.60
2005,04,20,00,56,9.50
2005,04,20,00,57,9.40
2005,04,20,00,58,9.40
2005,04,20,00,59,9.40
2005,04,20,01,00,9.40
2005,04,20,01,01,9.50
2005,04,20,01,02,9.50
2005,04,20,01,03,9.50
2005,04,20,01,04,9.50
2005,04,20,01,05,9.40
2005,04,20,01,06,9.40
2005,04,20,01,07,9.30
2005,04,20,01,08,9.30
2005,04,20,01,09,9.20
2005,04,20,01,10,9.20
2005,04,20,01,11,9.20
2005,04,20,01,12,9.30
2005,04,20,01,13,9.30
2005,04,20,01,14,9.40
2005,04,20,01,15,9.40
2005,04,20,01,16,9.40
2005,04,20,01,17,9.50
2005,04,20,01,18,9.40
2005,04,20,01,19,9.40
2005,04,20,01,20,9.40
2005,04,20,01,21,9.40
2005,04,20,01,22,9.40
2005,04,20,01,23,9.40
2005,04,20,01,24,9.40
2005,04,20,01,25,9.40
2005,04,20,01,26,9.40
2005,04,20,01,27,9.40
2005,04,20,01,28,9.40
2005,04,20,01,29,9.40
2005,04,20,01,30,9.20
2005,04,20,01,31,9.10
2005,04,20,01,32,9.00
2005,04,20,01,33,8.90
2005,04,20,01,34,8.80
2005,04,20,01,35,8.70
2005,04,20,01,36,8.70
2005,04,20,01,37,8.60
2005,04,20,01,38,8.60
2005,04,20,01,39,8.70
2005,04,20,01,40,8.70
2005,04,20,01,41,8.80
2005,04,20,01,42,8.80
2005,04,20,01,43,8.90
2005,04,20,01,44,8.90
2005,04,20,01,45,8.90
2005,04,20,01,46,8.90
2005,04,20,01,47,8.90
2005,04,20,01,48,8.80
2005,04,20,01,49,8.80
2005,04,20,01,50,8.70
2005,04,20,01,51,8.70
2005,04,20,01,52,8.70
2005,04,20,01,53,8.70
2005,04,20,01,54,8.70
2005,04,20,01,55,8.70
2005,04,20,01,56,8.70
2005,04,20,01,57,8.70
2005,04,20,01,58,8.70
2005,04,20,01,59,8.80
2005,04,20,02,00,8.80
2005,04,20,02,01,8.70
2005,04,20,02,02,8.70
2005,04,20,02,03,8.60
2005,04,20,02,04,8.50
2005,04,20,02,05,8.60
2005,04,20,02,06,8.60
2005,04,20,02,07,8.60
2005,04,20,02,08,8.60
2005,04,20,02,09,8.50
2005,04,20,02,10,8.50
2005,04,20,02,11,8.50
2005,04,20,02,12,8.60
2005,04,20,02,13,8.60
2005,04,20,02,14,8.60
2005,04,20,02,15,8.60
2005,04,20,02,16,8.60
2005,04,20,02,17,8.50
2005,04,20,02,18,8.50
2005,04,20,02,19,8.40
2005,04,20,02,20,8.30
2005,04,20,02,21,8.30
2005,04,20,02,22,8.20
2005,04,20,02,23,8.20
2005,04,20,02,24,8.10
2005,04,20,02,25,8.20
2005,04,20,02,26,8.30
2005,04,20,02,27,8.40
2005,04,20,02,28,8.50
2005,04,20,02,29,8.60
2005,04,20,02,30,8.60
2005,04,20,02,31,8.60
2005,04,20,02,32,8.60
2005,04,20,02,33,8.60
2005,04,20,02,34,8.70
2005,04,20,02,35,8.50
2005,04,20,02,36,8.40
2005,04,20,02,37,8.40
2005,04,20,02,38,8.30
2005,04,20,02,39,8.20
2005,04,20,02,40,8.20
2005,04,20,02,41,8.10
2005,04,20,02,42,8.10
2005,04,20,02,43,8.10
2005,04,20,02,44,8.00
2005,04,20,02,45,8.00
2005,04,20,02,46,8.00
2005,04,20,02,47,8.10
2005,04,20,02,48,8.10
2005,04,20,02,49,8.10
2005,04,20,02,50,8.20
2005,04,20,02,51,8.20
2005,04,20,02,52,8.30
2005,04,20,02,53,8.30
2005,04,20,02,54,8.30
2005,04,20,02,55,8.30
2005,04,20,02,56,8.50
2005,04,20,02,57,8.50
2005,04,20,02,58,8.50
2005,04,20,02,59,8.40
2005,04,20,03,00,8.40
2005,04,20,03,01,8.40
2005,04,20,03,02,8.40
2005,04,20,03,03,8.40
2005,04,20,03,04,8.50
2005,04,20,03,05,8.50
2005,04,20,03,06,8.50
2005,04,20,03,07,8.50
2005,04,20,03,08,8.50
2005,04,20,03,09,8.50
2005,04,20,03,10,8.50
2005,04,20,03,11,8.50
2005,04,20,03,12,8.60
2005,04,20,03,13,8.60
2005,04,20,03,14,8.50
2005,04,20,03,15,8.50
2005,04,20,03,16,8.50
2005,04,20,03,17,8.40
2005,04,20,03,18,8.30
2005,04,20,03,19,8.20
2005,04,20,03,20,8.10
2005,04,20,03,21,8.00
2005,04,20,03,22,8.00
2005,04,20,03,23,8.00
2005,04,20,03,24,8.00
2005,04,20,03,25,8.00
2005,04,20,03,26,7.90
2005,04,20,03,27,7.90
2005,04,20,03,28,7.80
2005,04,20,03,29,7.80
2005,04,20,03,30,7.80
2005,04,20,03,31,8.00
2005,04,20,03,32,8.00
2005,04,20,03,33,7.80
2005,04,20,03,34,7.80
2005,04,20,03,35,7.70
2005,04,20,03,36,7.60
2005,04,20,03,37,7.60
2005,04,20,03,38,7.60
2005,04,20,03,39,7.60
2005,04,20,03,40,7.60
2005,04,20,03,41,7.70
2005,04,20,03,42,7.80
2005,04,20,03,43,7.80
2005,04,20,03,44,7.70
2005,04,20,03,45,7.70
2005,04,20,03,46,7.60
2005,04,20,03,47,7.60
2005,04,20,03,48,7.60
2005,04,20,03,49,7.60
2005,04,20,03,50,7.60
2005,04,20,03,51,7.50
2005,04,20,03,52,7.50
2005,04,20,03,53,7.40
2005,04,20,03,54,7.40
2005,04,20,03,55,7.30
2005,04,20,03,56,7.30
2005,04,20,03,57,7.30
2005,04,20,03,58,7.30
2005,04,20,03,59,7.30
2005,04,20,04,00,7.30
2005,04,20,04,01,7.40
2005,04,20,04,02,7.50
2005,04,20,04,03,7.50
2005,04,20,04,04,7.40
2005,04,20,04,05,7.30
2005,04,20,04,06,7.40
2005,04,20,04,07,7.30
2005,04,20,04,08,7.50
2005,04,20,04,09,7.50
2005,04,20,04,10,7.50
2005,04,20,04,11,7.50
2005,04,20,04,12,7.50
2005,04,20,04,13,7.60
2005,04,20,04,14,7.60
2005,04,20,04,15,7.50
2005,04,20,04,16,7.50
2005,04,20,04,17,7.50
2005,04,20,04,18,7.50
2005,04,20,04,19,7.60
2005,04,20,04,20,7.70
2005,04,20,04,21,7.70
2005,04,20,04,22,7.70
2005,04,20,04,23,7.70
2005,04,20,04,24,7.70
2005,04,20,04,25,7.80
2005,04,20,04,26,7.70
2005,04,20,04,27,7.70
2005,04,20,04,28,7.60
2005,04,20,04,29,7.60
2005,04,20,04,30,7.60
2005,04,20,04,31,7.60
2005,04,20,04,32,7.70
2005,04,20,04,33,7.70
2005,04,20,04,34,7.80
2005,04,20,04,35,7.80
2005,04,20,04,36,7.80
2005,04,20,04,37,7.80
2005,04,20,04,38,7.90
2005,04,20,04,39,7.90
2005,04,20,04,40,8.00
2005,04,20,04,41,8.00
2005,04,20,04,42,7.90
2005,04,20,04,43,7.90
2005,04,20,04,44,7.90
2005,04,20,04,45,7.90
2005,04,20,04,46,7.80
2005,04,20,04,47,7.80
2005,04,20,04,48,7.80
2005,04,20,04,49,7.70
2005,04,20,04,50,7.70
2005,04,20,04,51,7.80
2005,04,20,04,52,7.70
2005,04,20,04,53,7.80
2005,04,20,04,54,7.80
2005,04,20,04,55,7.80
2005,04,20,04,56,7.80
2005,04,20,04,57,7.80
2005,04,20,04,58,7.70
2005,04,20,04,59,7.60
2005,04,20,05,00,7.60
2005,04,20,05,01,7.50
2005,04,20,05,02,7.40
2005,04,20,05,03,7.30
2005,04,20,05,04,7.30
2005,04,20,05,05,7.30
2005,04,20,05,06,7.30
2005,04,20,05,07,7.30
2005,04,20,05,08,7.30
2005,04,20,05,09,7.20
2005,04,20,05,10,7.20
2005,04,20,05,11,7.20
2005,04,20,05,12,7.30
2005,04,20,05,13,7.30
2005,04,20,05,14,7.30
2005,04,20,05,15,7.30
2005,04,20,05,16,7.30
2005,04,20,05,17,7.30
2005,04,20,05,18,7.20
2005,04,20,05,19,7.20
2005,04,20,05,20,7.10
2005,04,20,05,21,7.10
2005,04,20,05,22,7.10
2005,04,20,05,23,7.10
2005,04,20,05,24,7.20
2005,04,20,05,25,7.30
2005,04,20,05,26,7.30
2005,04,20,05,27,7.30
2005,04,20,05,28,7.30
2005,04,20,05,29,7.30
2005,04,20,05,30,7.30
2005,04,20,05,31,7.30
2005,04,20,05,32,7.30
2005,04,20,05,33,7.20
2005,04,20,05,34,7.10
2005,04,20,05,35,7.00
2005,04,20,05,36,6.80
2005,04,20,05,37,6.70
2005,04,20,05,38,6.60
2005,04,20,05,39,6.60
2005,04,20,05,40,6.60
2005,04,20,05,41,6.50
2005,04,20,05,42,6.40
2005,04,20,05,43,6.40
2005,04,20,05,44,6.40
2005,04,20,05,45,6.40
2005,04,20,05,46,6.30
2005,04,20,05,47,6.40
2005,04,20,05,48,6.40
2005,04,20,05,49,6.40
2005,04,20,05,50,6.40
2005,04,20,05,51,6.40
2005,04,20,05,52,6.40
2005,04,20,05,53,6.50
2005,04,20,05,54,6.60
2005,04,20,05,55,6.70
2005,04,20,05,56,6.80
2005,04,20,05,57,6.80
2005,04,20,05,58,6.80
2005,04,20,05,59,6.70
2005,04,20,06,00,6.70
2005,04,20,06,01,6.80
2005,04,20,06,02,6.80
2005,04,20,06,03,6.80
2005,04,20,06,04,6.80
2005,04,20,06,05,6.80
2005,04,20,06,06,6.90
2005,04,20,06,07,7.00
2005,04,20,06,08,7.10
2005,04,20,06,09,7.20
2005,04,20,06,10,7.20
2005,04,20,06,11,7.30
2005,04,20,06,12,7.40
2005,04,20,06,13,7.60
2005,04,20,06,14,7.70
2005,04,20,06,15,7.80
2005,04,20,06,16,7.70
2005,04,20,06,17,7.70
2005,04,20,06,18,7.60
2005,04,20,06,19,7.70
2005,04,20,06,20,7.70
2005,04,20,06,21,7.70
2005,04,20,06,22,7.70
2005,04,20,06,23,7.70
2005,04,20,06,24,7.70
2005,04,20,06,25,7.70
2005,04,20,06,26,7.80
2005,04,20,06,27,7.80
2005,04,20,06,28,7.70
2005,04,20,06,29,7.70
2005,04,20,06,30,7.60
2005,04,20,06,31,7.60
2005,04,20,06,32,7.50
2005,04,20,06,33,7.60
2005,04,20,06,34,7.60
2005,04,20,06,35,7.60
2005,04,20,06,36,7.50
2005,04,20,06,37,7.40
2005,04,20,06,38,7.30
2005,04,20,06,39,7.30
2005,04,20,06,40,7.20
2005,04,20,06,41,7.20
2005,04,20,06,42,7.20
2005,04,20,06,43,7.30
2005,04,20,06,44,7.40
2005,04,20,06,45,7.40
2005,04,20,06,46,7.40
2005,04,20,06,47,7.40
2005,04,20,06,48,7.50
2005,04,20,06,49,7.50
2005,04,20,06,50,7.60
2005,04,20,06,51,7.60
2005,04,20,06,52,7.60
2005,04,20,06,53,7.60
2005,04,20,06,54,7.70
2005,04,20,06,55,7.70
2005,04,20,06,56,7.80
2005,04,20,06,57,7.90
2005,04,20,06,58,8.00
2005,04,20,06,59,8.10
2005,04,20,07,00,8.10
2005,04,20,07,01,8.20
2005,04,20,07,02,8.20
2005,04,20,07,03,8.20
2005,04,20,07,04,8.30
2005,04,20,07,05,8.30
2005,04,20,07,06,8.40
2005,04,20,07,07,8.50
2005,04,20,07,08,8.60
2005,04,20,07,09,8.70
2005,04,20,07,10,8.70
2005,04,20,07,11,8.80
2005,04,20,07,12,9.00
2005,04,20,07,13,9.00
2005,04,20,07,14,9.10
2005,04,20,07,15,9.20
2005,04,20,07,16,9.30
2005,04,20,07,17,9.30
2005,04,20,07,18,9.30
2005,04,20,07,19,9.30
2005,04,20,07,20,9.40
2005,04,20,07,21,9.40
2005,04,20,07,22,9.50
2005,04,20,07,23,9.50
2005,04,20,07,24,9.50
2005,04,20,07,25,9.50
2005,04,20,07,26,9.60
2005,04,20,07,27,9.70
2005,04,20,07,28,9.80
2005,04,20,07,29,9.80
2005,04,20,07,30,9.90
2005,04,20,07,31,10.00
2005,04,20,07,32,10.10
2005,04,20,07,33,10.20
2005,04,20,07,34,10.30
2005,04,20,07,35,10.40
2005,04,20,07,36,10.50
2005,04,20,07,37,10.60
2005,04,20,07,38,10.60
2005,04,20,07,39,10.70
2005,04,20,07,40,10.70
2005,04,20,07,41,10.70
2005,04,20,07,42,10.80
2005,04,20,07,43,10.80
2005,04,20,07,44,10.80
2005,04,20,07,45,10.90
2005,04,20,07,46,10.90
2005,04,20,07,47,11.00
2005,04,20,07,48,11.10
2005,04,20,07,49,11.20
2005,04,20,07,50,11.30
2005,04,20,07,51,11.30
2005,04,20,07,52,11.30
2005,04,20,07,53,11.30
2005,04,20,07,54,11.40
2005,04,20,07,55,11.60
2005,04,20,07,56,11.80
2005,04,20,07,57,11.90
2005,04,20,07,58,11.90
2005,04,20,07,59,12.00
2005,04,20,08,00,12.00
2005,04,20,08,01,12.10
2005,04,20,08,02,12.30
2005,04,20,08,03,12.40
2005,04,20,08,04,12.60
2005,04,20,08,05,12.70
2005,04,20,08,06,12.80
2005,04,20,08,07,13.00
2005,04,20,08,08,13.00
2005,04,20,08,09,13.10
2005,04,20,08,10,13.10
2005,04,20,08,11,13.00
2005,04,20,08,12,13.00
2005,04,20,08,13,13.00
2005,04,20,08,14,12.90
2005,04,20,08,15,12.80
2005,04,20,08,16,12.80
2005,04,20,08,17,12.80
2005,04,20,08,18,12.80
2005,04,20,08,19,12.80
2005,04,20,08,20,12.80
2005,04,20,08,21,12.80
2005,04,20,08,22,12.80
2005,04,20,08,23,12.70
2005,04,20,08,24,12.70
2005,04,20,08,25,12.80
2005,04,20,08,26,12.80
2005,04,20,08,27,12.90
2005,04,20,08,28,12.90
2005,04,20,08,29,13.00
2005,04,20,08,30,12.90
2005,04,20,08,31,13.00
2005,04,20,08,32,13.00
2005,04,20,08,33,13.10
2005,04,20,08,34,13.00
2005,04,20,08,35,12.90
2005,04,20,08,36,13.00
2005,04,20,08,37,13.00
2005,04,20,08,38,13.00
2005,04,20,08,39,12.90
2005,04,20,08,40,13.00
2005,04,20,08,41,13.00
2005,04,20,08,42,13.00
2005,04,20,08,43,13.10
2005,04,20,08,44,13.20
2005,04,20,08,45,13.30
2005,04,20,08,46,13.30
2005,04,20,08,47,13.30
2005,04,20,08,48,13.30
2005,04,20,08,49,13.40
2005,04,20,08,50,13.40
2005,04,20,08,51,13.50
2005,04,20,08,52,13.50
2005,04,20,08,53,13.50
2005,04,20,08,54,13.60
2005,04,20,08,55,13.60
2005,04,20,08,56,13.70
2005,04,20,08,57,13.80
2005,04,20,08,58,13.80
2005,04,20,08,59,13.90
2005,04,20,09,00,13.90
2005,04,20,09,01,13.80
2005,04,20,09,02,13.80
2005,04,20,09,03,13.90
2005,04,20,09,04,14.00
2005,04,20,09,05,14.10
2005,04,20,09,06,14.10
2005,04,20,09,07,14.00
2005,04,20,09,08,13.90
2005,04,20,09,09,13.80
2005,04,20,09,10,13.70
2005,04,20,09,11,13.60
2005,04,20,09,12,13.50
2005,04,20,09,13,13.40
2005,04,20,09,14,13.50
2005,04,20,09,15,13.60
2005,04,20,09,16,13.70
2005,04,20,09,17,13.70
2005,04,20,09,18,13.80
2005,04,20,09,19,13.80
2005,04,20,09,20,13.90
2005,04,20,09,21,14.00
2005,04,20,09,22,14.20
2005,04,20,09,23,14.40
2005,04,20,09,24,14.40
2005,04,20,09,25,14.30
2005,04,20,09,26,14.20
2005,04,20,09,27,14.10
2005,04,20,09,28,14.00
2005,04,20,09,29,14.00
2005,04,20,09,30,14.20
2005,04,20,09,31,14.20
2005,04,20,09,32,14.40
2005,04,20,09,33,14.40
2005,04,20,09,34,14.40
2005,04,20,09,35,14.30
2005,04,20,09,36,14.20
2005,04,20,09,37,14.20
2005,04,20,09,38,14.20
2005,04,20,09,39,14.20
2005,04,20,09,40,14.10
2005,04,20,09,41,14.00
2005,04,20,09,42,14.00
2005,04,20,09,43,14.00
2005,04,20,09,44,14.10
2005,04,20,09,45,14.10
2005,04,20,09,46,14.20
2005,04,20,09,47,14.20
2005,04,20,09,48,14.20
2005,04,20,09,49,14.20
2005,04,20,09,50,14.20
2005,04,20,09,51,14.20
2005,04,20,09,52,14.10
2005,04,20,09,53,14.10
2005,04,20,09,54,14.00
2005,04,20,09,55,14.00
2005,04,20,09,56,14.00
2005,04,20,09,57,14.10
2005,04,20,09,58,14.20
2005,04,20,09,59,14.20
2005,04,20,10,00,14.20
2005,04,20,10,01,14.20
2005,04,20,10,02,14.20
2005,04,20,10,03,14.20
2005,04,20,10,04,14.20
2005,04,20,10,05,14.00
2005,04,20,10,06,13.80
2005,04,20,10,07,13.50
2005,04,20,10,08,13.40
2005,04,20,10,09,13.40
2005,04,20,10,10,13.40
2005,04,20,10,11,13.20
2005,04,20,10,12,13.10
2005,04,20,10,13,13.20
2005,04,20,10,14,13.20
2005,04,20,10,15,13.20
2005,04,20,10,16,13.20
2005,04,20,10,17,13.20
2005,04,20,10,18,13.10
2005,04,20,10,19,13.00
2005,04,20,10,20,13.00
2005,04,20,10,21,13.00
2005,04,20,10,22,13.10
2005,04,20,10,23,13.10
2005,04,20,10,24,13.10
2005,04,20,10,25,13.10
2005,04,20,10,26,13.20
2005,04,20,10,27,13.30
2005,04,20,10,28,13.20
2005,04,20,10,29,13.20
2005,04,20,10,30,13.30
2005,04,20,10,31,13.30
2005,04,20,10,32,13.30
2005,04,20,10,33,13.30
2005,04,20,10,34,13.30
2005,04,20,10,35,13.30
2005,04,20,10,36,13.40
2005,04,20,10,37,13.60
2005,04,20,10,38,13.70
2005,04,20,10,39,13.80
2005,04,20,10,40,13.80
2005,04,20,10,41,13.70
2005,04,20,10,42,13.70
2005,04,20,10,43,13.70
2005,04,20,10,44,13.70
2005,04,20,10,45,13.80
2005,04,20,10,46,13.80
2005,04,20,10,47,13.80
2005,04,20,10,48,13.90
2005,04,20,10,49,14.00
2005,04,20,10,50,14.00
2005,04,20,10,51,14.20
2005,04,20,10,52,14.20
2005,04,20,10,53,14.40
2005,04,20,10,54,14.60
2005,04,20,10,55,14.70
2005,04,20,10,56,14.80
2005,04,20,10,57,14.90
2005,04,20,10,58,14.90
2005,04,20,10,59,14.90
2005,04,20,11,00,14.70
2005,04,20,11,01,14.70
2005,04,20,11,02,14.70
2005,04,20,11,03,14.60
2005,04,20,11,04,14.50
2005,04,20,11,05,14.40
2005,04,20,11,06,14.40
2005,04,20,11,07,14.40
2005,04,20,11,08,14.20
2005,04,20,11,09,14.10
2005,04,20,11,10,14.10
2005,04,20,11,11,14.10
2005,04,20,11,12,14.00
2005,04,20,11,13,13.90
2005,04,20,11,14,13.90
2005,04,20,11,15,13.90
2005,04,20,11,16,14.10
2005,04,20,11,17,14.40
2005,04,20,11,18,14.60
2005,04,20,11,19,14.60
2005,04,20,11,20,14.40
2005,04,20,11,21,14.30
2005,04,20,11,22,14.20
2005,04,20,11,23,14.10
2005,04,20,11,24,14.00
2005,04,20,11,25,13.90
2005,04,20,11,26,13.90
2005,04,20,11,27,13.90
2005,04,20,11,28,14.00
2005,04,20,11,29,14.10
2005,04,20,11,30,14.40
2005,04,20,11,31,14.50
2005,04,20,11,32,14.60
2005,04,20,11,33,14.90
2005,04,20,11,34,15.00
2005,04,20,11,35,15.10
2005,04,20,11,36,15.00
2005,04,20,11,37,14.90
2005,04,20,11,38,14.90
2005,04,20,11,39,14.90
2005,04,20,11,40,14.90
2005,04,20,11,41,14.90
2005,04,20,11,42,14.80
2005,04,20,11,43,14.80
2005,04,20,11,44,14.90
2005,04,20,11,45,14.90
2005,04,20,11,46,14.80
2005,04,20,11,47,14.90
2005,04,20,11,48,15.00
2005,04,20,11,49,15.00
2005,04,20,11,50,15.10
2005,04,20,11,51,15.10
2005,04,20,11,52,15.10
2005,04,20,11,53,15.20
2005,04,20,11,54,15.30
2005,04,20,11,55,15.20
2005,04,20,11,56,15.10
2005,04,20,11,57,15.00
2005,04,20,11,58,15.00
2005,04,20,11,59,15.10
2005,04,20,12,00,15.20
2005,04,20,12,01,15.20
2005,04,20,12,02,15.20
2005,04,20,12,03,15.10
2005,04,20,12,04,15.20
2005,04,20,12,05,15.20
2005,04,20,12,06,15.20
2005,04,20,12,07,15.00
2005,04,20,12,08,15.00
2005,04,20,12,09,15.00
2005,04,20,12,10,14.80
2005,04,20,12,11,14.80
2005,04,20,12,12,14.80
2005,04,20,12,13,14.90
2005,04,20,12,14,15.00
2005,04,20,12,15,15.10
2005,04,20,12,16,15.20
2005,04,20,12,17,15.30
2005,04,20,12,18,15.40
2005,04,20,12,19,15.30
2005,04,20,12,20,15.30
2005,04,20,12,21,15.30
2005,04,20,12,22,15.10
2005,04,20,12,23,15.10
2005,04,20,12,24,15.30
2005,04,20,12,25,15.50
2005,04,20,12,26,15.60
2005,04,20,12,27,15.60
2005,04,20,12,28,15.60
2005,04,20,12,29,15.60
2005,04,20,12,30,15.50
2005,04,20,12,31,15.40
2005,04,20,12,32,15.30
2005,04,20,12,33,15.10
2005,04,20,12,34,15.10
2005,04,20,12,35,15.10
2005,04,20,12,36,15.00
2005,04,20,12,37,15.00
2005,04,20,12,38,15.10
2005,04,20,12,39,15.20
2005,04,20,12,40,15.40
2005,04,20,12,41,15.50
2005,04,20,12,42,15.50
2005,04,20,12,43,15.40
2005,04,20,12,44,15.40
2005,04,20,12,45,15.30
2005,04,20,12,46,15.30
2005,04,20,12,47,15.30
2005,04,20,12,48,15.30
2005,04,20,12,49,15.30
2005,04,20,12,50,15.40
2005,04,20,12,51,15.50
2005,04,20,12,52,15.50
2005,04,20,12,53,15.70
2005,04,20,12,54,15.50
2005,04,20,12,55,15.40
2005,04,20,12,56,15.30
2005,04,20,12,57,15.30
2005,04,20,12,58,15.30
2005,04,20,12,59,15.30
2005,04,20,13,00,15.30
2005,04,20,13,01,15.40
2005,04,20,13,02,15.50
2005,04,20,13,03,15.60
2005,04,20,13,04,15.70
2005,04,20,13,05,15.50
2005,04,20,13,06,15.40
2005,04,20,13,07,15.30
2005,04,20,13,08,15.40
2005,04,20,13,09,15.50
2005,04,20,13,10,15.40
2005,04,20,13,11,15.40
2005,04,20,13,12,15.20
2005,04,20,13,13,15.10
2005,04,20,13,14,14.90
2005,04,20,13,15,14.80
2005,04,20,13,16,14.80
2005,04,20,13,17,14.80
2005,04,20,13,18,14.80
2005,04,20,13,19,14.80
2005,04,20,13,20,14.80
2005,04,20,13,21,14.90
2005,04,20,13,22,14.90
2005,04,20,13,23,15.00
2005,04,20,13,24,15.00
2005,04,20,13,25,15.10
2005,04,20,13,26,15.30
2005,04,20,13,27,15.40
2005,04,20,13,28,15.60
2005,04,20,13,29,15.60
2005,04,20,13,30,15.50
2005,04,20,13,31,15.60
2005,04,20,13,32,15.60
2005,04,20,13,33,15.50
2005,04,20,13,34,15.50
2005,04,20,13,35,15.50
2005,04,20,13,36,15.40
2005,04,20,13,37,15.30
2005,04,20,13,38,15.20
2005,04,20,13,39,15.20
2005,04,20,13,40,15.10
2005,04,20,13,41,15.10
2005,04,20,13,42,15.10
2005,04,20,13,43,15.30
2005,04,20,13,44,15.40
2005,04,20,13,45,15.40
2005,04,20,13,46,15.40
2005,04,20,13,47,15.50
2005,04,20,13,48,15.30
2005,04,20,13,49,15.20
2005,04,20,13,50,15.20
2005,04,20,13,51,15.10
2005,04,20,13,52,15.00
2005,04,20,13,53,14.90
2005,04,20,13,54,15.00
2005,04,20,13,55,15.10
2005,04,20,13,56,15.10
2005,04,20,13,57,15.20
2005,04,20,13,58,15.40
2005,04,20,13,59,15.50
2005,04,20,14,00,15.50
2005,04,20,14,01,15.50
2005,04,20,14,02,15.50
2005,04,20,14,03,15.60
2005,04,20,14,04,15.80
2005,04,20,14,05,16.20
2005,04,20,14,06,16.40
2005,04,20,14,07,16.60
2005,04,20,14,08,16.90
2005,04,20,14,09,17.00
2005,04,20,14,10,16.90
2005,04,20,14,11,16.90
2005,04,20,14,12,16.90
2005,04,20,14,13,16.90
2005,04,20,14,14,17.00
2005,04,20,14,15,17.20
2005,04,20,14,16,17.40
2005,04,20,14,17,17.60
2005,04,20,14,18,17.60
2005,04,20,14,19,17.40
2005,04,20,14,20,17.30
2005,04,20,14,21,17.40
2005,04,20,14,22,17.50
2005,04,20,14,23,17.40
2005,04,20,14,24,17.30
2005,04,20,14,25,17.10
2005,04,20,14,26,17.00
2005,04,20,14,27,17.00
2005,04,20,14,28,16.90
2005,04,20,14,29,16.80
2005,04,20,14,30,16.80
2005,04,20,14,31,16.90
2005,04,20,14,32,16.80
2005,04,20,14,33,16.80
2005,04,20,14,34,16.80
2005,04,20,14,35,16.70
2005,04,20,14,36,16.60
2005,04,20,14,37,16.40
2005,04,20,14,38,16.30
2005,04,20,14,39,16.30
2005,04,20,14,40,16.40
2005,04,20,14,41,16.60
2005,04,20,14,42,16.60
2005,04,20,14,43,16.60
2005,04,20,14,44,16.60
2005,04,20,14,45,16.50
2005,04,20,14,46,16.40
2005,04,20,14,47,16.30
2005,04,20,14,48,16.30
2005,04,20,14,49,16.20
2005,04,20,14,50,16.30
2005,04,20,14,51,16.50
2005,04,20,14,52,16.70
2005,04,20,14,53,16.70
2005,04,20,14,54,16.60
2005,04,20,14,55,16.50
2005,04,20,14,56,16.40
2005,04,20,14,57,16.60
2005,04,20,14,58,16.60
2005,04,20,14,59,16.60
2005,04,20,15,00,16.60
2005,04,20,15,01,16.70
2005,04,20,15,02,16.80
2005,04,20,15,03,16.80
2005,04,20,15,04,16.80
2005,04,20,15,05,16.90
2005,04,20,15,06,16.90
2005,04,20,15,07,17.10
2005,04,20,15,08,17.20
2005,04,20,15,09,17.40
2005,04,20,15,10,17.30
2005,04,20,15,11,17.10
2005,04,20,15,12,17.00
2005,04,20,15,13,17.10
2005,04,20,15,14,17.10
2005,04,20,15,15,17.20
2005,04,20,15,16,17.30
2005,04,20,15,17,17.40
2005,04,20,15,18,17.70
2005,04,20,15,19,17.80
2005,04,20,15,20,17.80
2005,04,20,15,21,17.90
2005,04,20,15,22,18.10
2005,04,20,15,23,18.20
2005,04,20,15,24,18.50
2005,04,20,15,25,18.60
2005,04,20,15,26,18.80
2005,04,20,15,27,18.90
2005,04,20,15,28,19.10
2005,04,20,15,29,19.20
2005,04,20,15,30,19.30
2005,04,20,15,31,19.30
2005,04,20,15,32,19.40
2005,04,20,15,33,19.40
2005,04,20,15,34,19.40
2005,04,20,15,35,19.50
2005,04,20,15,36,19.70
2005,04,20,15,37,19.80
2005,04,20,15,38,19.40
2005,04,20,15,39,19.00
2005,04,20,15,40,19.00
2005,04,20,15,41,19.00
2005,04,20,15,42,19.10
2005,04,20,15,43,19.30
2005,04,20,15,44,19.50
2005,04,20,15,45,19.60
2005,04,20,15,46,19.70
2005,04,20,15,47,19.70
2005,04,20,15,48,19.80
2005,04,20,15,49,19.60
2005,04,20,15,50,19.40
2005,04,20,15,51,19.30
2005,04,20,15,52,19.30
2005,04,20,15,53,19.20
2005,04,20,15,54,19.20
2005,04,20,15,55,19.40
2005,04,20,15,56,19.30
2005,04,20,15,57,19.00
2005,04,20,15,58,18.90
2005,04,20,15,59,19.00
2005,04,20,16,00,19.10
2005,04,20,16,01,19.10
2005,04,20,16,02,19.20
2005,04,20,16,03,19.30
2005,04,20,16,04,19.40
2005,04,20,16,05,19.50
2005,04,20,16,06,19.70
2005,04,20,16,07,19.80
2005,04,20,16,08,19.80
2005,04,20,16,09,19.90
2005,04,20,16,10,19.80
2005,04,20,16,11,19.30
2005,04,20,16,12,18.90
2005,04,20,16,13,18.50
2005,04,20,16,14,18.00
2005,04,20,16,15,17.90
2005,04,20,16,16,17.80
2005,04,20,16,17,17.80
2005,04,20,16,18,17.90
2005,04,20,16,19,18.00
2005,04,20,16,20,17.90
2005,04,20,16,21,17.90
2005,04,20,16,22,17.90
2005,04,20,16,23,18.10
2005,04,20,16,24,18.20
2005,04,20,16,25,18.40
2005,04,20,16,26,18.50
2005,04,20,16,27,18.50
2005,04,20,16,28,18.60
2005,04,20,16,29,18.60
2005,04,20,16,30,18.50
2005,04,20,16,31,18.30
2005,04,20,16,32,18.20
2005,04,20,16,33,17.90
2005,04,20,16,34,17.80
2005,04,20,16,35,17.60
2005,04,20,16,36,17.40
2005,04,20,16,37,17.30
2005,04,20,16,38,17.40
2005,04,20,16,39,17.40
2005,04,20,16,40,17.50
2005,04,20,16,41,17.50
2005,04,20,16,42,17.50
2005,04,20,16,43,17.60
2005,04,20,16,44,17.70
2005,04,20,16,45,17.70
2005,04,20,16,46,17.60
2005,04,20,16,47,17.60
2005,04,20,16,48,17.40
2005,04,20,16,49,17.30
2005,04,20,16,50,17.20
2005,04,20,16,51,17.10
2005,04,20,16,52,17.10
2005,04,20,16,53,17.20
2005,04,20,16,54,17.30
2005,04,20,16,55,17.40
2005,04,20,16,56,17.50
2005,04,20,16,57,17.50
2005,04,20,16,58,17.50
2005,04,20,16,59,17.50
2005,04,20,17,00,17.60
2005,04,20,17,01,17.60
2005,04,20,17,02,17.50
2005,04,20,17,03,17.50
2005,04,20,17,04,17.60
2005,04,20,17,05,17.60
2005,04,20,17,06,17.80
2005,04,20,17,07,17.80
2005,04,20,17,08,17.90
2005,04,20,17,09,17.90
2005,04,20,17,10,18.10
2005,04,20,17,11,18.20
2005,04,20,17,12,18.40
2005,04,20,17,13,18.40
2005,04,20,17,14,18.50
2005,04,20,17,15,18.70
2005,04,20,17,16,18.90
2005,04,20,17,17,19.10
2005,04,20,17,18,19.30
2005,04,20,17,19,19.40
2005,04,20,17,20,19.50
2005,04,20,17,21,19.60
2005,04,20,17,22,19.60
2005,04,20,17,23,19.40
2005,04,20,17,24,19.60
2005,04,20,17,25,19.70
2005,04,20,17,26,19.90
2005,04,20,17,27,19.90
2005,04,20,17,28,19.90
2005,04,20,17,29,19.80
2005,04,20,17,30,19.80
2005,04,20,17,31,19.60
2005,04,20,17,32,19.50
2005,04,20,17,33,19.60
2005,04,20,17,34,19.80
2005,04,20,17,35,19.90
2005,04,20,17,36,19.90
2005,04,20,17,37,19.90
2005,04,20,17,38,19.70
2005,04,20,17,39,19.70